Volver al catálogo

STARLINK-36461

ActivoComunicacionesVLEO
NORAD 67316·PAYLOAD·🇺🇸 United States

Lanzado Jan 4, 2026 desde Cape Canaveral Space Force Station

Loading…

Próximos Pases (próximas 24 horas)

TLE

ActualizadoSource: CelesTrak SupGP

Época: Sep 15, 2026, 03:27 UTC

1 67316C 26002M   26258.14423611  .00042197  00000+0  15280-2 0  2586
2 67316  43.0026 335.0530 0001383 264.1646 205.7150 15.27564429    19

Sigue STARLINK-36461 en tiempo real con AllMySat

Download on the App Store